Regional Weather Roundup
Issued by NWS

Home | Current Version | Previous Version | Text Only | Print | Product List | Glossary On
Versions: 1 2 3 4 5 6 7 8 9 10 11 12 13 14 15 16 17 18 19 20 21 22 23 24 25 26 27 28 29 30 31 32 33 34 35 36 37 38 39 40 41 42 43 44 45 46 47 48 49 50
000
ASUS43 KLSX 240807
RWRMO

WEATHER SUMMARY FOR MISSOURI
NATIONAL WEATHER SERVICE SPRINGFIELD MO
300 AM CDT SUN MAY 24 2015

NOTE: "FAIR" INDICATES FEW OR NO CLOUDS BELOW 12,000 FEET WITH NO
       SIGNIFICANT WEATHER AND/OR OBSTRUCTIONS TO VISIBILITY.
       CURRENT SKY AND/OR WEATHER CONDITIONS ARE NOT AVAILABLE FOR
       CHILLICOTHE AND FARMINGTON.

MOZ001>031-035>038-043-044-053-054-240900-
...NORTHERN AND WESTERN MISSOURI...

CITY           SKY/WX    TMP DP  RH WIND       PRES   REMARKS
KANSAS CTY INT LGT RAIN  61  60  97 SE16      29.92F
KANSAS C DTWN  LGT RAIN  63  59  87 E15G23    29.90F
LEE`S SUMMIT   LGT RAIN  62  59  90 SE9       29.94F
ST JOSEPH      LGT RAIN  62  60  93 E16G24    29.90F
CHILLICOTHE      N/A     62  32  32 E13G18    30.01F
KIRKSVILLE     LGT RAIN  60  59  96 SE12      30.08F

$$
MOZ066>068-077>081-088>096-101>105-240900-
...SOUTHWEST MISSOURI...

CITY           SKY/WX    TMP DP  RH WIND       PRES   REMARKS
SPRINGFIELD    CLOUDY    67  58  72 SE18G26   29.98R
JOPLIN         HVY RAIN  65  64  97 S16G25    29.92F FOG

$$
MOZ032>034-039>042-045>050-055>058-069>072-240900-
...CENTRAL MISSOURI...

CITY           SKY/WX    TMP DP  RH WIND       PRES   REMARKS
COLUMBIA       CLOUDY    61  57  87 E9        30.05F
JEFFERSON CITY CLOUDY    68  53  58 NE14      30.03F
ROLLA          CLOUDY    63  54  72 E9        30.03F
SEDALIA        CLOUDY    61  57  87 E12       30.01F
WHITEMAN AFB   DRIZZLE   61  59  94 SE7       29.98F
WARRENSBURG    RAIN      61  57  88 E8        29.97F
OSAGE BEACH    CLOUDY    66  54  63 SE6       30.01S

$$
MOZ051-052-059>065-240900-
...EAST CENTRAL MISSOURI...

CITY           SKY/WX    TMP DP  RH WIND       PRES   REMARKS
ST LOUIS INTL  CLOUDY    67  54  63 E8        30.11F
SPIRIT OF STL  CLOUDY    65  54  67 E3        30.09F
ST CHARLES     CLOUDY    65  54  67 E10       30.10F

$$
MOZ072>076-082>087-097>100-106>115-240900-
...SOUTH CENTRAL AND SOUTHEAST MISSOURI...

CITY           SKY/WX    TMP DP  RH WIND       PRES   REMARKS
CAPE GIRARDEAU MOCLDY    65  57  75 SE7       30.11F
FARMINGTON     CLOUDY    64  54  68 S8        30.13F
POPLAR BLUFF   CLOUDY    66  58  75 SE3       30.09S
WEST PLAINS    MOCLDY    64  54  69 SE7       30.07F

$$



USA.gov is the U.S. government's official web portal to all federal, state and local government web resources and services.